| time (UTC) | temp C | wind direction | speed KPH | gust KPH | rain 1hr cm | rain 24hr cm | rain mn cm | humidity % | barometer mb |
| 20260510113043 | 11 | 44 | 16.1 | 30.6 | 0.00 | 0.00 | 0.00 | 71 | 1016.2 |
| 20260510111548 | 11 | 37 | 20.9 | 35.4 | 0.00 | 0.00 | 0.00 | 69 | 1016.2 |
| 20260510110043 | 11 | 23 | 17.7 | 30.6 | 0.00 | 0.00 | 0.00 | 71 | 1016.3 |
| 20260510104547 | 11 | 30 | 20.9 | 38.6 | 0.00 | 0.00 | 0.00 | 71 | 1016.5 |
| 20260510103044 | 12 | 65 | 22.5 | 35.4 | 0.00 | 0.00 | 0.00 | 71 | 1016.4 |
| 20260510101545 | 12 | 40 | 12.9 | 37.0 | 0.00 | 0.00 | 0.00 | 71 | 1016.4 |
| 20260510100048 | 12 | 53 | 16.1 | 29.0 | 0.00 | 0.00 | 0.00 | 71 | 1016.5 |
| 20260510094548 | 12 | 29 | 19.3 | 35.4 | 0.00 | 0.00 | 0.00 | 71 | 1016.4 |
| 20260510093102 | 12 | 29 | 22.5 | 38.6 | 0.00 | 0.00 | 0.00 | 70 | 1016.4 |
| 20260510091547 | 12 | 50 | 12.9 | 33.8 | 0.00 | 0.00 | 0.00 | 72 | 1016.5 |
| 20260510090048 | 11 | 36 | 16.1 | 30.6 | 0.00 | 0.00 | 0.00 | 73 | 1016.5 |
| 20260510084544 | 11 | 43 | 17.7 | 35.4 | 0.00 | 0.00 | 0.00 | 73 | 1016.7 |
| 20260510083043 | 11 | 55 | 19.3 | 37.0 | 0.00 | 0.00 | 0.00 | 75 | 1016.8 |
| 20260510081549 | 11 | 6 | 17.7 | 30.6 | 0.00 | 0.00 | 0.00 | 77 | 1016.8 |
| 20260510080042 | 11 | 48 | 17.7 | 32.2 | 0.00 | 0.00 | 0.00 | 78 | 1016.9 |
| 20260510074549 | 11 | 30 | 19.3 | 33.8 | 0.00 | 0.00 | 0.00 | 79 | 1017.0 |
| 20260510073050 | 10 | 55 | 19.3 | 37.0 | 0.00 | 0.00 | 0.00 | 80 | 1017.0 |
| 20260510071552 | 10 | 77 | 17.7 | 32.2 | 0.00 | 0.00 | 0.00 | 80 | 1017.0 |
| 20260510070044 | 10 | 52 | 14.5 | 22.5 | 0.00 | 0.00 | 0.00 | 82 | 1016.9 |
| 20260510064539 | 10 | 58 | 16.1 | 29.0 | 0.00 | 0.00 | 0.00 | 82 | 1016.9 |
| 20260510063039 | 10 | 30 | 14.5 | 29.0 | 0.00 | 0.00 | 0.00 | 83 | 1016.8 |
| 20260510061552 | 10 | 29 | 17.7 | 27.4 | 0.00 | 0.00 | 0.00 | 85 | 1016.8 |
| 20260510060048 | 9 | 39 | 11.3 | 20.9 | 0.00 | 0.00 | 0.00 | 86 | 1016.8 |
| 20260510054546 | 9 | 32 | 6.4 | 22.5 | 0.00 | 0.00 | 0.00 | 87 | 1016.7 |
| 20260510053058 | 9 | 21 | 9.7 | 25.7 | 0.00 | 0.00 | 0.00 | 88 | 1016.6 |
| 20260510051548 | 8 | 49 | 11.3 | 22.5 | 0.00 | 0.00 | 0.00 | 88 | 1016.5 |
| 20260510050043 | 8 | 40 | 9.7 | 22.5 | 0.00 | 0.00 | 0.00 | 89 | 1016.6 |
| 20260510044551 | 8 | 27 | 6.4 | 20.9 | 0.00 | 0.00 | 0.00 | 89 | 1016.8 |
| 20260510043053 | 8 | 15 | 4.8 | 17.7 | 0.00 | 0.00 | 0.00 | 89 | 1016.8 |
| 20260510041546 | 8 | 335 | 6.4 | 14.5 | 0.00 | 0.00 | 0.00 | 89 | 1016.8 |
| 20260510040046 | 8 | 23 | 6.4 | 17.7 | 0.00 | 0.00 | 0.00 | 90 | 1016.7 |
| 20260510034547 | 8 | 33 | 6.4 | 16.1 | 0.00 | 0.00 | 0.00 | 90 | 1017.0 |
| 20260510033100 | 8 | 42 | 4.8 | 16.1 | 0.00 | 0.00 | 0.00 | 90 | 1016.9 |
| 20260510031552 | 8 | 330 | 4.8 | 16.1 | 0.00 | 0.00 | 0.00 | 90 | 1017.2 |
| 20260510030051 | 8 | 24 | 3.2 | 16.1 | 0.00 | 0.00 | 0.00 | 90 | 1017.1 |
| 20260510024548 | 8 | 21 | 8.0 | 19.3 | 0.00 | 0.00 | 0.00 | 89 | 1016.8 |
| 20260510023048 | 8 | 359 | 8.0 | 17.7 | 0.00 | 0.00 | 0.00 | 89 | 1017.1 |
| 20260510021550 | 8 | 30 | 4.8 | 17.7 | 0.00 | 0.00 | 0.00 | 89 | 1017.0 |
| 20260510020050 | 8 | 21 | 4.8 | 14.5 | 0.00 | 0.00 | 0.00 | 89 | 1017.2 |
| 20260510014550 | 8 | 13 | 6.4 | 14.5 | 0.00 | 0.00 | 0.00 | 88 | 1017.1 |
| 20260510013050 | 8 | 33 | 8.0 | 16.1 | 0.00 | 0.00 | 0.00 | 88 | 1017.1 |
| 20260510011552 | 8 | 41 | 8.0 | 16.1 | 0.00 | 0.00 | 0.00 | 87 | 1017.1 |
| 20260510010043 | 8 | 46 | 6.4 | 16.1 | 0.00 | 0.00 | 0.00 | 86 | 1017.2 |
| 20260510004551 | 9 | 24 | 6.4 | 16.1 | 0.00 | 0.00 | 0.00 | 85 | 1017.1 |
| 20260510003046 | 9 | 347 | 6.4 | 12.9 | 0.00 | 0.00 | 0.00 | 85 | 1017.4 |
| 20260510001549 | 9 | 15 | 6.4 | 11.3 | 0.00 | 0.00 | 0.00 | 84 | 1017.4 |
| 20260510000057 | 10 | 6 | 4.8 | 14.5 | 0.00 | 0.00 | 0.00 | 83 | 1017.3 |
| 20260509234545 | 10 | 37 | 8.0 | 14.5 | 0.00 | 0.00 | 0.00 | 82 | 1017.2 |
| 20260509233041 | 10 | 13 | 6.4 | 17.7 | 0.00 | 0.00 | 0.00 | 81 | 1017.4 |
| 20260509231548 | 10 | 16 | 8.0 | 14.5 | 0.00 | 0.00 | 0.00 | 80 | 1017.4 |
| 20260509230054 | 10 | 29 | 8.0 | 16.1 | 0.00 | 0.00 | 0.00 | 80 | 1017.4 |
| 20260509224545 | 11 | 37 | 8.0 | 16.1 | 0.00 | 0.00 | 0.00 | 78 | 1017.3 |
| 20260509223044 | 11 | 18 | 4.8 | 12.9 | 0.00 | 0.00 | 0.00 | 76 | 1017.4 |
| 20260509221546 | 11 | 23 | 6.4 | 16.1 | 0.00 | 0.00 | 0.00 | 76 | 1017.4 |
| 20260509220052 | 11 | 34 | 8.0 | 17.7 | 0.00 | 0.00 | 0.00 | 75 | 1017.4 |
| 20260509214559 | 11 | 31 | 8.0 | 16.1 | 0.00 | 0.00 | 0.00 | 73 | 1017.2 |
| 20260509213048 | 11 | 15 | 4.8 | 11.3 | 0.00 | 0.00 | 0.00 | 71 | 1017.3 |
| 20260509211547 | 12 | 53 | 9.7 | 19.3 | 0.00 | 0.00 | 0.00 | 70 | 1017.1 |
| 20260509210045 | 12 | 18 | 9.7 | 19.3 | 0.00 | 0.00 | 0.00 | 71 | 1016.8 |
| 20260509204546 | 12 | 52 | 8.0 | 19.3 | 0.00 | 0.00 | 0.00 | 71 | 1017.1 |
| 20260509203053 | 12 | 57 | 11.3 | 22.5 | 0.00 | 0.00 | 0.00 | 70 | 1016.9 |
| 20260509201541 | 12 | 72 | 14.5 | 27.4 | 0.00 | 0.00 | 0.00 | 69 | 1016.7 |
| 20260509200041 | 13 | 50 | 17.7 | 22.5 | 0.00 | 0.00 | 0.00 | 68 | 1016.8 |
| 20260509194548 | 13 | 54 | 14.5 | 24.1 | 0.00 | 0.00 | 0.00 | 66 | 1016.5 |
| 20260509193046 | 13 | 52 | 16.1 | 25.7 | 0.00 | 0.00 | 0.00 | 64 | 1016.4 |
| 20260509191557 | 13 | 51 | 14.5 | 24.1 | 0.00 | 0.00 | 0.00 | 64 | 1016.5 |
| 20260509190051 | 13 | 63 | 14.5 | 22.5 | 0.00 | 0.00 | 0.00 | 63 | 1016.6 |
| 20260509184555 | 13 | 70 | 16.1 | 27.4 | 0.00 | 0.00 | 0.00 | 59 | 1016.4 |
| 20260509183057 | 14 | 79 | 19.3 | 29.0 | 0.00 | 0.00 | 0.00 | 57 | 1016.6 |
| 20260509181549 | 14 | 47 | 16.1 | 29.0 | 0.00 | 0.00 | 0.00 | 55 | 1016.4 |
| 20260509180049 | 15 | 75 | 20.9 | 30.6 | 0.00 | 0.00 | 0.00 | 53 | 1016.2 |
| 20260509174601 | 15 | 81 | 22.5 | 32.2 | 0.00 | 0.00 | 0.00 | 49 | 1016.2 |
| 20260509173102 | 15 | 60 | 19.3 | 30.6 | 0.00 | 0.00 | 0.00 | 51 | 1016.2 |
| 20260509171547 | 15 | 80 | 19.3 | 33.8 | 0.00 | 0.00 | 0.00 | 51 | 1016.1 |
| 20260509170048 | 15 | 82 | 24.1 | 37.0 | 0.00 | 0.00 | 0.00 | 49 | 1016.2 |
| 20260509164553 | 15 | 87 | 20.9 | 35.4 | 0.00 | 0.00 | 0.00 | 49 | 1016.4 |
| 20260509163048 | 15 | 81 | 25.7 | 33.8 | 0.00 | 0.00 | 0.00 | 50 | 1016.6 |
| 20260509161552 | 15 | 79 | 22.5 | 30.6 | 0.00 | 0.00 | 0.00 | 52 | 1016.8 |
| 20260509160057 | 15 | 63 | 22.5 | 37.0 | 0.00 | 0.00 | 0.00 | 52 | 1016.8 |
| 20260509154552 | 15 | 78 | 25.7 | 33.8 | 0.00 | 0.00 | 0.00 | 51 | 1016.7 |
| 20260509153053 | 16 | 75 | 24.1 | 32.2 | 0.00 | 0.00 | 0.00 | 54 | 1016.8 |
| 20260509151547 | 15 | 70 | 30.6 | 41.8 | 0.00 | 0.00 | 0.00 | 52 | 1016.8 |
| 20260509150041 | 16 | 76 | 27.4 | 37.0 | 0.00 | 0.00 | 0.00 | 51 | 1016.6 |
| 20260509144547 | 16 | 74 | 33.8 | 43.5 | 0.00 | 0.00 | 0.00 | 52 | 1016.2 |
| 20260509143045 | 16 | 65 | 29.0 | 37.0 | 0.00 | 0.00 | 0.00 | 52 | 1016.3 |
| 20260509141544 | 16 | 58 | 24.1 | 41.8 | 0.00 | 0.00 | 0.00 | 51 | 1016.5 |
| 20260509140048 | 16 | 82 | 22.5 | 37.0 | 0.00 | 0.00 | 0.00 | 53 | 1016.5 |
| 20260509134544 | 16 | 75 | 27.4 | 37.0 | 0.00 | 0.00 | 0.00 | 57 | 1016.4 |
| 20260509133046 | 16 | 76 | 29.0 | 40.2 | 0.00 | 0.00 | 0.00 | 54 | 1016.4 |
| 20260509131543 | 16 | 68 | 19.3 | 33.8 | 0.00 | 0.00 | 0.00 | 56 | 1016.5 |
| 20260509130053 | 16 | 89 | 20.9 | 33.8 | 0.00 | 0.00 | 0.00 | 56 | 1016.7 |
| 20260509124554 | 16 | 82 | 20.9 | 35.4 | 0.00 | 0.00 | 0.00 | 54 | 1016.8 |
| 20260509123051 | 16 | 63 | 20.9 | 32.2 | 0.00 | 0.00 | 0.00 | 53 | 1017.1 |
| 20260509121546 | 16 | 55 | 19.3 | 32.2 | 0.00 | 0.00 | 0.00 | 55 | 1017.2 |
| 20260509120049 | 16 | 72 | 19.3 | 38.6 | 0.00 | 0.00 | 0.00 | 55 | 1017.3 |
| 20260509114559 | 16 | 80 | 25.7 | 40.2 | 0.00 | 0.00 | 0.00 | 55 | 1017.3 |